TimeEDT,TemperatureF,Dew PointF,Humidity,Sea Level PressureIn,VisibilityMPH,Wind Direction,Wind SpeedMPH,Gust SpeedMPH,PrecipitationIn,Events,Conditions,WindDirDegrees,DateUTC
12:53 AM,39.9,37.0,89,30.21,10.0,SW,3.5,-,N/A,,Clear,230,2012-09-24 04:53:00
1:53 AM,37.9,36.0,93,30.21,10.0,SW,4.6,-,N/A,,Clear,220,2012-09-24 05:53:00
2:53 AM,39.0,36.0,89,30.20,10.0,SW,4.6,-,N/A,,Clear,230,2012-09-24 06:53:00
3:53 AM,37.9,35.1,89,30.20,10.0,SW,4.6,-,N/A,,Clear,230,2012-09-24 07:53:00
4:53 AM,35.1,32.0,89,30.20,10.0,Calm,Calm,-,N/A,,Clear,0,2012-09-24 08:53:00
5:53 AM,39.0,35.1,86,30.19,10.0,SSW,5.8,-,N/A,,Partly Cloudy,210,2012-09-24 09:53:00
6:53 AM,39.9,35.1,83,30.19,10.0,SW,5.8,-,N/A,,Partly Cloudy,220,2012-09-24 10:53:00
7:53 AM,41.0,36.0,82,30.18,10.0,SW,6.9,-,N/A,,Clear,220,2012-09-24 11:53:00
8:53 AM,46.0,37.9,73,30.18,10.0,SW,12.7,-,N/A,,Clear,220,2012-09-24 12:53:00
9:53 AM,50.0,39.0,66,30.17,10.0,SW,12.7,19.6,N/A,,Clear,230,2012-09-24 13:53:00
10:53 AM,55.0,39.0,55,30.15,10.0,SW,17.3,24.2,N/A,,Clear,230,2012-09-24 14:53:00
11:53 AM,57.0,36.0,45,30.12,10.0,SW,13.8,27.6,N/A,,Clear,230,2012-09-24 15:53:00
12:53 PM,59.0,33.1,38,30.10,10.0,WSW,19.6,29.9,N/A,,Clear,240,2012-09-24 16:53:00
1:53 PM,59.0,35.1,41,30.07,10.0,WSW,20.7,26.5,N/A,,Clear,240,2012-09-24 17:53:00
2:53 PM,61.0,37.0,41,30.03,10.0,SW,17.3,25.3,N/A,,Clear,230,2012-09-24 18:53:00
3:53 PM,62.1,34.0,35,29.99,10.0,WSW,16.1,25.3,N/A,,Clear,240,2012-09-24 19:53:00
4:53 PM,63.0,34.0,34,29.96,10.0,SW,18.4,31.1,N/A,,Clear,220,2012-09-24 20:53:00
5:53 PM,62.1,34.0,35,29.94,10.0,SW,12.7,24.2,N/A,,Clear,230,2012-09-24 21:53:00
6:53 PM,60.1,33.1,36,29.93,10.0,SW,9.2,18.4,N/A,,Clear,220,2012-09-24 22:53:00
7:53 PM,57.0,33.1,40,29.90,10.0,SSW,10.4,-,N/A,,Clear,200,2012-09-24 23:53:00
8:53 PM,55.9,33.1,42,29.89,10.0,SSW,11.5,-,N/A,,Clear,200,2012-09-25 00:53:00
9:53 PM,55.9,33.1,42,29.90,10.0,SSW,10.4,-,N/A,,Clear,210,2012-09-25 01:53:00
10:53 PM,55.9,33.1,42,29.92,10.0,SSW,9.2,-,N/A,,Clear,210,2012-09-25 02:53:00
11:53 PM,55.9,34.0,44,29.91,10.0,SW,9.2,-,N/A,,Clear,220,2012-09-25 03:53:00